Regional Weather Roundup
Issued by NWS

Home | Current Version | Previous Version | Graphics & Text | Print | Product List | Glossary On
Versions: 1 2 3 4 5 6 7 8 9 10 11 12 13 14 15 16 17 18 19 20 21 22 23 24 25 26 27 28 29 30 31 32 33 34 35 36 37 38 39 40 41 42 43 44 45 46 47 48 49 50
847
ASUS45 KBOU 180507
RWRCO

WEATHER ROUNDUP FOR COLORADO
NATIONAL WEATHER SERVICE DENVER/BOULDER CO
1000 PM MST TUE JAN 17 2017

NOTE: "FAIR" INDICATES FEW OR NO CLOUDS BELOW 12000 FEET WITH NO
SIGNIFICANT WEATHER AND/OR OBSTRUCTIONS TO VISIBILITY.

COZ001>005-013-030-031-180600-
...NORTHWEST COLORADO...

CITY           SKY/WX    TMP DP  RH WIND       PRES   REMARKS
CRAIG          FOG       12   8  84 E5        30.21F VSB 1/4 WCI   4
HAYDEN           N/A      3   1  92 CALM      30.18S VSB 3/4
MEEKER         FAIR      12   8  84 E3        30.19S
MOUNT WERNER   NOT AVBL
STEAMBOAT SPGS FAIR      13  10  90 CALM      30.18S
WALDEN           N/A    N/A N/A N/A CALM      30.16F VSB 3/4
$$

COZ006>008-011-180600-
...WEST CENTRAL VALLEYS...

CITY           SKY/WX    TMP DP  RH WIND       PRES   REMARKS
GRAND JUNCTION FAIR      31  28  89 CALM      30.17S
MONTROSE       CLOUDY    36  30  79 CALM      30.18S
EAGLE          CLEAR     18  16  93 CALM      30.21S
RIFLE          FAIR      26  23  88 CALM      30.18S
DELTA          CLOUDY    38  32  79 E7        30.17S
NUCLA          FAIR      32  28  86 CALM      30.19S
$$

COZ017>023-064>068-180600-
...SOUTHWEST COLORADO...

CITY           SKY/WX    TMP DP  RH WIND       PRES   REMARKS
DURANGO        MOCLDY    34  30  85 N3        30.12S
CORTEZ         FAIR      33  31  92 CALM      30.14S
PAGOSA SPRINGS CLOUDY    33  33  99 CALM      30.14S
TELLURIDE      CLOUDY    26  24  90 CALM      30.16F
WOLF CREEK PAS CLOUDY    18  18 100 CALM      30.19F
$$

COZ009-010-012-014-032>034-037-058>063-180600-
...CENTRAL COLORADO...

CITY           SKY/WX    TMP DP  RH WIND       PRES   REMARKS
ASPEN          FAIR      17  13  84 S8        30.15S WCI   7
BUENA VISTA    FAIR      14   9  81 CALM      30.12R
COPPER MTN     FAIR      27 -22  11 CALM      30.15F
BERTHOUD PASS  NOT AVBL
COTTONWOOD PAS FAIR      32  14  47 E3        30.12R
GUNNISON       CLOUDY    20  18  92 SE3       30.19S
KREMMLING      FAIR      10   7  85 CALM      30.21S
LEADVILLE      FAIR       7   3  84 NE8       30.13S WCI  -6
MONARCH PASS   MOCLDY    16  12  86 MISG      30.24F
SALIDA         FAIR      29  21  74 W5        30.19S WCI  23
SUNLIGHT       FAIR      18  16  93 E3        30.20S
WILKERSON PASS FAIR      27   0  31 NE5       30.17R WCI  21
$$

COZ069>075-180600-
...SAN LUIS VALLEY/SANGRE DE CRISTO MOUNTAINS...

CITY           SKY/WX    TMP DP  RH WIND       PRES   REMARKS
ALAMOSA        MOCLDY    22  21  96 E5        30.13S FOG     WCI  16
LA VETA PASS   FAIR      21  19  93 NE16      30.12S WCI   7
SAGUACHE       FOG       27  25  93 CALM      30.15S VSB 1/4
$$

COZ035-036-038>040-180600-
...NORTHERN COLORADO FRONT RANGE...

CITY           SKY/WX    TMP DP  RH WIND       PRES   REMARKS
DENVER INTL AP FAIR      22  17  81 S7        30.00S WCI  13
DMNS CITY PARK   N/A     30  23  74 SE9       30.01S WCI  22
AURORA         PTCLDY    29  21  73 S12       30.01S WCI  19
FRONT RANGE AP NOT AVBL
ERIE MUNI ARPT FAIR      19  17  92 S3        30.01S
BOULDER MUN AP FAIR      32  25  74 CALM      30.00S
CENTENNIAL     FAIR      28  20  71 S8        30.02R WCI  20
BROOMFIELD     CLEAR     32  19  59 CALM      30.00F
FORT COLLINS   FAIR      28  25  86 CALM      30.02S
LONGMONT       FAIR      23  19  84 W3        30.02F
$$

COZ041-046-047-076>085-087-088-180600-
...PIKES PEAK/PALMER DIVIDE AND SOUTHERN FOOTHILLS...

CITY           SKY/WX    TMP DP  RH WIND       PRES   REMARKS
COLO. SPRINGS  FAIR      25  17  72 NE5       30.06R WCI  19
A. F. ACADEMY  FAIR      21  14  74 N8        30.05R WCI  12
SCHRIEVER AFB  NOT AVBL
ELLICOTT       FAIR     N/A N/A N/A S9        30.04S
FALCON         FAIR      26  10  51 W3        30.06S
FORT CARSON    NOT AVBL
LIMON          FAIR      17  16  95 E3        30.05R
MONUMENT HILL  FAIR      21  10  63 SW10      30.06S WCI  10
TRINIDAD       FAIR      26  24  92 W9        30.06S WCI  17
$$

COZ042>045-048>051-090-091-180600-
...NORTHEAST COLORADO...

CITY           SKY/WX    TMP DP  RH WIND       PRES   REMARKS
GREELEY ARPT   FAIR      24  22  91 NW5       30.02F WCI  18
AKRON          FAIR      28  25  88 W9        30.00S WCI  19
BURLINGTON     FAIR      32  29  88 SW12      30.06S WCI  23
WRAY           NOT AVBL
STERLING       FAIR      21  21 100 S7        30.00S WCI  13
HOLYOKE        FAIR      21  19  93 SW5       30.02R WCI  15
FORT MORGAN    FAIR      23  22  93 W9        30.01S WCI  13
$$

COZ086-089-092>099-180600-
...SOUTHEAST COLORADO...

CITY           SKY/WX    TMP DP  RH WIND       PRES   REMARKS
PUEBLO         CLOUDY    27  25  92 SE5       30.07S FOG     WCI  22
LA JUNTA       FAIR      20  17  88 W12       30.07F WCI   8
LAMAR          FAIR      21  19  92 SW7       30.07R WCI  12
SPRINGFIELD      N/A     30  29  96 S8        30.06S WCI  22
$$




USA.gov is the U.S. government's official web portal to all federal, state and local government web resources and services.